Flight Track Log - Related Links

Times and Time Zones

All times are in EDT time to prevent confusion due to time zone crossing. See the AWE1600 flight status page for this flight to view local times or setup timezone preferences in your user account.

Time Position Orientation Groundspeed Altitude Reporting Facility
EDT Latitude Longitude Course Direction KTS MPH feet Rate Location/Type
Thu 07:06:43 AM 41.9478 -72.6775 180° South 162 186 1,000  Level Boston Center
Thu 07:07:51 AM 41.9647 -72.5992 74° East 188 216 3,200 2,544 Climbing Boston Center
Thu 07:08:48 AM 41.9481 -72.5183 105° East 226 260 6,300 3,050 Climbing Boston Center
Thu 07:09:00 AM 41.5811 -72.4550 132° Southeast  Level FlightAware Approximate
Thu 07:09:51 AM 41.8772 -72.4875 162° South 239 275 9,300  Level Boston Center
Thu 07:10:00 AM 41.5167 -72.3501 129° Southeast  Level FlightAware Approximate
Thu 07:10:48 AM 41.7981 -72.4594 165° South 295 339 11,400  Level Boston Center
Thu 07:11:00 AM 41.4154 -72.3470 173° South  Level FlightAware Approximate
Thu 07:11:50 AM 41.6875 -72.4206 165° South 362 417 14,300  Level Boston Center
Thu 07:12:00 AM 41.3144 -72.3333 180° South  Level FlightAware Approximate
Thu 07:12:50 AM 41.5939 -72.3956 169° South 386 444 17,000  Level Boston Center
Thu 07:13:51 AM 41.4939 -72.3986 181° South 391 450 18,800 1,513 Climbing Boston Center
Thu 07:14:49 AM 41.3625 -72.4097 184° South 402 463 20,000 559 Climbing Boston Center
Thu 07:15:49 AM 41.2686 -72.4925 214° Southwest 390 449 19,900  Descending Boston Center
Thu 07:16:50 AM 41.1792 -72.5753 215° Southwest 408 470 20,000 50 Climbing Boston Center
Thu 07:17:50 AM 41.0789 -72.6547 211° Southwest 428 493 20,000  Level Boston Center
Thu 07:18:48 AM 40.9914 -72.7206 210° Southwest 405 466 20,000  Level Boston Center
Thu 07:19:51 AM 40.9097 -72.7833 210° Southwest 372 428 20,000  Level Boston Center
Thu 07:20:49 AM 40.8431 -72.8353 211° Southwest 358 412 20,000  Level Boston Center
Thu 07:21:50 AM 40.7342 -72.9139 209° Southwest 348 400 20,000  Level Boston Center
Thu 07:22:51 AM 40.6486 -72.9817 211° Southwest 348 400 20,000  Level Boston Center
Thu 07:24:02 AM 40.5586 -73.0464 209° Southwest 361 415 20,000  Level Boston Center
Thu 07:25:58 AM 40.3703 -73.1956 211° Southwest 368 423 20,000  Level New York Center
Thu 07:26:59 AM 40.2792 -73.2631 209° Southwest 368 423 20,000 -639 Level New York Center
Thu 07:28:00 AM 40.1806 -73.3003 196° South 368 423 18,700 -1,169 Descending New York Center
Thu 07:28:57 AM 40.0797 -73.3344 195° South 374 430 17,700 -1,261 Descending New York Center
Thu 07:29:59 AM 39.9908 -73.3961 208° Southwest 366 421 16,200 -829 Descending New York Center
Thu 07:31:00 AM 39.9344 -73.4889 232° Southwest 352 405 16,000 -555 Descending New York Center
Thu 07:31:58 AM 39.8717 -73.5919 232° Southwest 358 412 15,100 -958 Descending New York Center
Thu 07:32:59 AM 39.8067 -73.6919 230° Southwest 364 419 14,100 -661 Descending New York Center
Thu 07:33:47 AM 39.7497 -73.7833 231° Southwest 366 421 13,900 -111 Descending Washington Center
Thu 07:34:47 AM 39.6947 -73.8711 231° Southwest 360 414 13,900  Level Washington Center
Thu 07:35:47 AM 39.6336 -73.9694 231° Southwest 360 414 13,900 65 Level Washington Center
Thu 07:36:20 AM 39.5925 -74.0308 229° Southwest 355 409 14,000 111 Climbing FAA TRACON SMA TRACON (SMA)
Thu 07:36:41 AM 39.5736 -74.0597 230° Southwest 356 410 14,000  Level FAA TRACON SMA TRACON (SMA)
Thu 07:37:01 AM 39.5492 -74.0989 231° Southwest 353 406 14,000  Level FAA TRACON SMA TRACON (SMA)
Thu 07:37:21 AM 39.5336 -74.1275 235° Southwest 355 409 14,000  Level FAA TRACON SMA TRACON (SMA)
Thu 07:37:41 AM 39.5244 -74.1686 254° West 354 407 14,000  Level FAA TRACON SMA TRACON (SMA)
Thu 07:38:01 AM 39.5253 -74.2183 271° West 359 413 14,000 -300 Level FAA TRACON SMA TRACON (SMA)
Thu 07:38:21 AM 39.5264 -74.2578 272° West 354 407 13,800 -1,200 Descending FAA TRACON SMA TRACON (SMA)
Thu 07:38:41 AM 39.5267 -74.2975 271° West 355 409 13,200 -2,250 Descending FAA TRACON SMA TRACON (SMA)
Thu 07:39:01 AM 39.5281 -74.3447 272° West 357 411 12,300 -2,550 Descending FAA TRACON SMA TRACON (SMA)
Thu 07:39:21 AM 39.5281 -74.3856 270° West 355 409 11,500 -2,250 Descending FAA TRACON SMA TRACON (SMA)
Thu 07:39:41 AM 39.5286 -74.4244 271° West 353 406 10,800 -1,950 Descending FAA TRACON SMA TRACON (SMA)
Thu 07:40:01 AM 39.5292 -74.4719 271° West 347 399 10,200 -1,050 Descending FAA TRACON SMA TRACON (SMA)
Thu 07:40:21 AM 39.5300 -74.5069 272° West 327 376 10,100 -300 Descending FAA TRACON SMA TRACON (SMA)
Thu 07:40:41 AM 39.5311 -74.5375 273° West 294 338 10,000 -300 Descending FAA TRACON SMA TRACON (SMA)
Thu 07:41:01 AM 39.5314 -74.5767 271° West 273 314 9,900 -1,050 Descending FAA TRACON SMA TRACON (SMA)
Thu 07:41:21 AM 39.5319 -74.6058 271° West 265 305 9,300 -1,350 Descending FAA TRACON SMA TRACON (SMA)
Thu 07:41:41 AM 39.5331 -74.6344 273° West 266 306 9,000 -450 Descending FAA TRACON SMA TRACON (SMA)
Thu 07:42:01 AM 39.5336 -74.6717 271° West 265 305 9,000  Level FAA TRACON SMA TRACON (SMA)
Thu 07:42:21 AM 39.5339 -74.7019 271° West 267 307 9,000  Level FAA TRACON SMA TRACON (SMA)
Thu 07:42:41 AM 39.5347 -74.7294 272° West 268 308 9,000  Level FAA TRACON SMA TRACON (SMA)
Thu 07:43:01 AM 39.5350 -74.7683 271° West 267 307 9,000  Level FAA TRACON SMA TRACON (SMA)
Thu 07:43:21 AM 39.5356 -74.7978 271° West 266 306 9,000  Level FAA TRACON SMA TRACON (SMA)
Thu 07:43:41 AM 39.5361 -74.8272 271° West 265 305 9,000  Level FAA TRACON SMA TRACON (SMA)
Thu 07:44:01 AM 39.5364 -74.8631 271° West 267 307 9,000  Level FAA TRACON SMA TRACON (SMA)
Thu 07:44:21 AM 39.5369 -74.8942 271° West 267 307 9,000 -600 Level FAA TRACON SMA TRACON (SMA)
Thu 07:44:41 AM 39.5375 -74.9233 271° West 266 306 8,600 -1,800 Descending FAA TRACON SMA TRACON (SMA)
Thu 07:45:01 AM 39.5378 -74.9594 271° West 265 305 7,800 -2,100 Descending FAA TRACON SMA TRACON (SMA)
Thu 07:45:21 AM 39.5392 -74.9894 273° West 266 306 7,200 -1,800 Descending FAA TRACON SMA TRACON (SMA)
Thu 07:45:41 AM 39.5419 -75.0183 277° West 270 311 6,600 -1,650 Descending FAA TRACON SMA TRACON (SMA)
Thu 07:46:01 AM 39.5450 -75.0556 276° West 270 311 6,100 -900 Descending FAA TRACON SMA TRACON (SMA)
Thu 07:46:21 AM 39.5475 -75.0858 276° West 267 307 6,000 -150 Descending FAA TRACON SMA TRACON (SMA)
Thu 07:46:41 AM 39.5494 -75.1153 275° West 267 307 6,000  Level FAA TRACON SMA TRACON (SMA)
Thu 07:47:01 AM 39.5519 -75.1450 276° West 267 307 6,000  Level FAA TRACON SMA TRACON (SMA)
Thu 07:47:21 AM 39.5547 -75.1819 276° West 268 308 6,000  Level FAA TRACON SMA TRACON (SMA)
Thu 07:47:41 AM 39.5572 -75.2097 277° West 263 303 6,000  Level FAA TRACON SMA TRACON (SMA)
Thu 07:48:01 AM 39.5683 -75.2372 298° West 278 320 6,000  Level FAA TRACON SMA TRACON (SMA)
Thu 07:48:21 AM 39.5836 -75.2686 302° West 268 308 6,000  Level FAA TRACON SMA TRACON (SMA)
Thu 07:48:41 AM 39.5958 -75.2947 301° West 272 313 6,000  Level FAA TRACON SMA TRACON (SMA)
Thu 07:49:01 AM 39.6075 -75.3192 302° West 261 300 6,000  Level FAA TRACON SMA TRACON (SMA)
Thu 07:49:21 AM 39.6197 -75.3478 299° West 234 269 6,000  Level FAA TRACON SMA TRACON (SMA)
Thu 07:49:41 AM 39.6264 -75.3706 291° West 222 255 6,000  Level FAA TRACON SMA TRACON (SMA)
Thu 07:50:02 AM 39.6339 -75.3942 292° West 226 260 6,000  Level FAA TRACON SMA TRACON (SMA)
Thu 07:50:21 AM 39.6433 -75.4231 293° West 226 260 6,000  Level FAA TRACON SMA TRACON (SMA)
Thu 07:50:41 AM 39.6506 -75.4461 292° West 224 258 6,000  Level FAA TRACON SMA TRACON (SMA)
Thu 07:51:01 AM 39.6581 -75.4692 293° West 226 260 6,000 -450 Level FAA TRACON SMA TRACON (SMA)
Thu 07:51:21 AM 39.6764 -75.4853 326° Northwest 235 270 5,700 -1,200 Descending FAA TRACON SMA TRACON (SMA)
Thu 07:51:41 AM 39.6967 -75.5000 331° Northwest 242 278 5,200 -1,500 Descending FAA TRACON SMA TRACON (SMA)
Thu 07:52:01 AM 39.7150 -75.5125 332° Northwest 240 276 4,700 -1,050 Descending FAA TRACON SMA TRACON (SMA)
Thu 07:52:21 AM 39.7372 -75.5283 331° Northwest 237 273 4,500 -750 Descending FAA TRACON SMA TRACON (SMA)
Thu 07:52:41 AM 39.7539 -75.5400 332° Northwest 224 258 4,200 -900 Descending FAA TRACON SMA TRACON (SMA)
Thu 07:53:01 AM 39.7708 -75.5500 336° Northwest 220 253 3,900 -1,350 Descending FAA TRACON SMA TRACON (SMA)
Thu 07:53:21 AM 39.7919 -75.5419 16° North 222 255 3,300 -1,200 Descending FAA TRACON SMA TRACON (SMA)
Thu 07:53:41 AM 39.8069 -75.5239 43° Northeast 208 239 3,100 -450 Descending FAA TRACON SMA TRACON (SMA)
Thu 07:54:01 AM 39.8142 -75.5042 65° Northeast 194 223 3,000 -150 Descending FAA TRACON SMA TRACON (SMA)
Thu 07:54:21 AM 39.8200 -75.4775 74° East 198 228 3,000 -150 Level FAA TRACON SMA TRACON (SMA)
Thu 07:54:41 AM 39.8242 -75.4567 75° East 199 229 2,900 -558 Descending FAA TRACON SMA TRACON (SMA)
Thu 07:55:04 AM 39.8289 -75.4372 72° East 197 227 2,600 -1,116 Descending FAA TRACON SMA TRACON (SMA)
Thu 07:55:24 AM 39.8331 -75.4111 78° East 193 222 2,100 -1,135 Descending FAA TRACON SMA TRACON (SMA)
Thu 07:55:41 AM 39.8381 -75.3900 73° East 187 215 1,900 -706 Descending FAA TRACON SMA TRACON (SMA)

Login

Don't have an account? Register now (free) for customized features, flight alerts, and more!